RH
29 35 38 36 36 39 40 40 36 35 37 34 36 34 35 36 37 41 44 44 34 30 34 37 39 41 41 40 47 51 48 48 47 51 54 54 51 50 50 50 50 51 52 54
32 33 30 34 36 41 41 37 37 36 34 34 34 31 35 39 33 30 28 25 18 20 28 34 38 42 42 43 47 54 55 44 45 47 48 49 49 49 50 54 53 53 54 57
34 27 28 36 38 40 37 38 38 37 31 30 29 24 23 20 13 9 10 10 14 19 25 32 38 41 43 47 52 56 61 46 42 41 41 44 49 50 54 58 58 58 59 62
32 29 29 33 34 34 38 38 35 32 30 28 24 22 15 13 12 15 16 18 18 20 26 33 39 44 53 59 63 66 69 61 48 44 41 41 46 52 58 59 59 62 64 68
31 29 32 31 31 34 35 30 27 25 23 24 24 24 15 17 21 25 27 27 27 28 31 32 36 50 57 69 74 76 73 68 58 52 46 46 52 58 60 60 64 67 64 62
31 28 27 25 26 25 24 24 26 25 25 33 27 29 24 26 26 29 29 33 31 37 40 45 51 61 74 79 80 80 76 70 61 54 52 51 56 58 55 58 62 61 61 61
29 27 25 23 24 24 27 30 40 41 41 37 31 36 32 33 36 37 37 40 44 44 47 56 68 79 83 83 85 85 77 68 59 57 49 49 50 52 55 60 63 64 64 65
34 34 27 29 31 34 36 37 47 51 53 43 37 43 39 44 44 44 42 46 55 58 60 69 73 81 86 87 86 78 69 65 66 65 56 54 51 52 57 64 70 71 71 70
39 37 35 36 37 37 40 44 44 52 50 54 43 40 46 55 57 55 62 60 63 65 67 72 76 83 84 83 82 76 72 70 72 68 65 56 53 55 63 68 70 74 80 72
40 42 36 35 36 41 42 43 50 56 62 60 49 44 47 58 58 60 69 74 75 72 71 76 80 84 83 85 86 79 79 76 75 70 68 63 61 69 74 72 76 84 78 74
42 42 37 37 38 40 43 45 48 55 61 70 72 58 51 61 60 61 63 65 74 75 72 68 69 71 75 86 80 80 77 71 76 73 75 71 69 71 74 71 72 73 73 69
46 46 46 39 37 39 40 42 47 57 58 71 84 86 53 64 67 69 70 67 65 61 58 59 59 54 53 53 58 63 68 86 85 83 84 80 78 77 80 78 77 76 74 72
52 54 58 43 42 44 46 45 48 58 63 78 95 82 67 65 68 70 72 64 62 60 57 58 59 55 50 49 47 51 57 63 67 78 79 81 84 84 84 83 85 82 82 80
60 57 60 59 53 55 56 52 51 59 68 66 64 70 61 63 65 66 71 66 62 63 62 63 58 52 50 48 48 54 59 68 68 73 77 77 84 82 87 90 88 83 84 79
69 67 69 62 61 60 62 52 60 66 62 72 61 64 63 61 62 64 70 68 66 62 57 47 42 40 44 55 57 59 72 73 79 77 75 70 73 80 91 88 93 89 83 75
74 81 85 76 71 74 76 63 67 65 62 66 66 63 61 62 65 68 69 68 62 52 43 37 35 39 51 57 57 62 77 76 77 81 84 81 83 78 87 89 89 85 78 74
83 92 95 94 83 93 88 60 68 66 58 62 65 58 71 69 65 58 54 53 49 44 38 34 35 53 67 66 68 66 79 84 88 85 88 91 94 88 83 82 83 79 76 74
82 85 94 93 88 94 44 49 57 62 54 62 64 65 71 74 70 71 71 69 60 42 37 41 59 76 80 74 69 75 81 85 83 88 91 94 97 92 84 81 83 81 83 82
79 85 96 95 78 63 42 50 58 60 51 66 69 75 77 74 72 70 70 62 45 40 45 55 74 82 82 82 78 77 76 82 84 90 88 95 97 98 98 95 95 95 94 97
61 73 87 85 95 83 61 69 75 81 75 78 84 85 82 76 69 60 48 43 37 47 58 68 79 78 73 69 67 70 74 82 85 89 91 94 95 95 96 95 98 98 98 94
66 78 84 80 94 91 83 80 82 93 82 87 83 76 80 73 62 50 47 46 45 45 59 72 86 84 80 72 68 73 77 77 80 85 89 89 89 90 91 92 92 94 96 97
70 82 78 81 89 92 88 85 95 93 92 92 80 73 76 72 55 46 47 49 47 52 67 70 83 85 83 80 76 78 80 83 82 81 80 79 81 86 89 93 95 96 97 96
80 88 91 98 96 97 93 85 82 89 87 82 70 60 63 61 51 45 42 41 46 56 78 77 88 90 87 82 82 79 80 81 79 77 74 77 81 83 84 82 94 98 97 97
72 72 81 83 74 75 74 81 83 85 88 88 79 68 71 67 60 62 46 43 49 73 83 90 95 96 89 85 83 81 77 78 79 78 78 82 83 84 83 86 90 97 97 97
70 70 64 68 63 60 68 73 77 78 81 83 80 73 69 68 64 57 44 42 49 75 80 85 94 96 93 87 85 82 79 80 82 82 83 85 85 87 88 88 88 92 94 95
67 61 66 62 55 61 63 68 67 69 69 70 67 66 69 62 63 45 44 44 44 64 77 77 83 87 88 85 82 82 82 82 85 85 83 86 89 90 92 93 94 94 94 93